Location: �bnet
(46.9957°N, 8.4908°E)
Time: 00:53:31
(UTC+00:00)

ATLAS 5 CENTAUR R/B - Pass Details

Date: 11 May 2021
Orbit: 513 x 1144 km, 63.3° (Epoch: 18 June)

Event Time Altitude Azimuth Distance (km) Brightness Sun altitude
Rises 20:39:20 0° 313° (NW) 3,303 7.1 -15.3°
Reaches altitude 10° 20:41:49 10° 304° (NW) 2,468 5.8 -15.6°
Maximum altitude 20:46:56 34° 242° (WSW) 1,511 3.6 -16.1°
Enters shadow 20:51:49 14° 185° (S) 2,513 4.2 -16.6°
